Voltar ao catálogo

ATLAS 5 CENTAUR DEB

LostHEO
NORAD 49378·DEBRIS·🇺🇸 United States

Lançado Oct 17, 2018 de Cape Canaveral Space Force Station

Loading…

Próximas Passagens (próximas 24 horas)

TLE

ObsoletoSource: Space-Track

Época: May 13, 2024, 09:10 UTC

1 49378U 18079GF  24134.38207642 -.00000098  00000-0  00000+0 0  9999
2 49378  10.1411 141.9567 4615418 107.8801 306.5325  1.64296039 16032

Acompanhe ATLAS 5 CENTAUR DEB em tempo real com AllMySat

Download on the App Store